FW7858 Weather Reports


Display with metric or nautical units.
time (UTC)temp
F
wind
direction
speed
MPH
gust
MPH
rain 1hr
in
rain 24hr
in
rain mn
in
humidity
%
barometer
mb
20260901220036 79 248 2.0 5.0 0.00 0.00 0.00 54 1010.7
20260901215536 79 240 0.0 4.0 0.00 0.00 0.00 56 1010.6
20260901215035 79 240 0.0 4.0 0.00 0.00 0.00 54 1010.7
20260901214536 79 240 1.0 5.0 0.00 0.00 0.00 53 1010.7
20260901214035 79 240 1.0 5.0 0.00 0.00 0.00 53 1010.6
20260901213537 79 239 0.0 5.0 0.00 0.00 0.00 54 1010.6
20260901213038 79 239 3.0 5.0 0.00 0.00 0.00 55 1010.7
20260901212535 79 236 2.0 4.0 0.00 0.00 0.00 55 1010.6
20260901212034 79 235 2.0 4.0 0.00 0.00 0.00 54 1010.5
20260901211537 79 235 0.0 3.0 0.00 0.00 0.00 56 1010.4
20260901211034 79 235 1.0 5.0 0.00 0.00 0.00 54 1010.4
20260901210533 79 235 1.0 5.0 0.00 0.00 0.00 52 1010.5
20260901210037 80 237 3.0 7.0 0.00 0.00 0.00 51 1010.6
20260901205531 80 236 0.0 5.0 0.00 0.00 0.00 52 1010.6
20260901205031 80 227 1.0 5.0 0.00 0.00 0.00 51 1010.6
20260901204535 80 242 1.0 7.0 0.00 0.00 0.00 51 1010.6
20260901204031 81 241 2.0 7.0 0.00 0.00 0.00 49 1010.6
20260901203531 81 246 2.0 7.0 0.00 0.00 0.00 49 1010.6
20260901203046 81 233 1.0 10.0 0.00 0.00 0.00 48 1010.6
20260901202531 81 218 5.0 10.0 0.00 0.00 0.00 48 1010.6
20260901202032 82 234 4.0 10.0 0.00 0.00 0.00 49 1010.5
20260901201539 81 250 4.0 10.0 0.00 0.00 0.00 50 1010.6
20260901201027 81 252 1.0 10.0 0.00 0.00 0.00 50 1010.6
20260901200525 81 240 2.0 8.0 0.00 0.00 0.00 51 1010.6
20260901200028 80 240 4.0 8.0 0.00 0.00 0.00 53 1010.6
20260901195522 79 244 0.0 4.0 0.00 0.00 0.00 54 1010.6
20260901195023 78 245 2.0 8.0 0.00 0.00 0.00 57 1010.7
20260901194521 78 243 4.0 8.0 0.00 0.00 0.00 56 1010.8
20260901194023 78 241 2.0 4.0 0.00 0.00 0.00 55 1010.9
20260901193520 78 241 0.0 2.0 0.00 0.00 0.00 57 1010.8
20260901193020 78 241 0.0 2.0 0.00 0.00 0.00 57 1010.9
20260901192521 77 241 0.0 5.0 0.00 0.00 0.00 58 1010.9
20260901192024 77 241 2.0 7.0 0.00 0.00 0.00 56 1011.1
20260901191521 78 242 3.0 7.0 0.00 0.00 0.00 56 1011.1
20260901191018 78 245 3.0 7.0 0.00 0.00 0.00 56 1010.9
20260901190518 78 252 1.0 6.0 0.00 0.00 0.00 55 1010.9
20260901190019 78 240 3.0 6.0 0.00 0.00 0.00 55 1011.0
20260901185517 78 346 0.0 6.0 0.00 0.00 0.00 56 1011.1
20260901185015 78 220 2.0 6.0 0.00 0.00 0.00 54 1011.1
20260901184514 78 283 1.0 7.0 0.00 0.00 0.00 56 1011.2
20260901184015 78 250 1.0 7.0 0.00 0.00 0.00 56 1011.4
20260901183513 78 250 2.0 7.0 0.00 0.00 0.00 56 1011.4
20260901183012 78 250 4.0 7.0 0.00 0.00 0.00 57 1011.4
20260901182511 78 246 0.0 9.0 0.00 0.00 0.00 57 1011.5
20260901182010 78 243 4.0 9.0 0.00 0.00 0.00 57 1011.5
20260901181514 77 244 1.0 4.0 0.00 0.00 0.00 60 1011.5
20260901181010 77 248 0.0 4.0 0.00 0.00 0.00 59 1011.5
20260901180509 76 237 2.0 4.0 0.00 0.00 0.00 59 1011.7
20260901180007 76 237 0.0 5.0 0.00 0.00 0.00 60 1011.8
20260901175509 76 237 1.0 7.0 0.00 0.00 0.00 60 1011.9
20260901175007 76 307 1.0 7.0 0.00 0.00 0.00 59 1012.1
20260901174509 77 244 2.0 7.0 0.00 0.00 0.00 59 1012.0
20260901174007 76 296 0.0 6.0 0.00 0.00 0.00 62 1011.9
20260901173504 76 238 3.0 7.0 0.00 0.00 0.00 61 1012.0
20260901173002 76 229 2.0 5.0 0.00 0.00 0.00 62 1012.0
20260901172503 75 229 1.0 5.0 0.00 0.00 0.00 62 1012.0
20260901172103 75 246 3.0 7.0 0.00 0.00 0.00 61 1012.1
20260901171605 75 240 2.0 7.0 0.00 0.00 0.00 61 1012.1
20260901171058 75 242 3.0 7.0 0.00 0.00 0.00 62 1012.2
20260901170558 75 241 2.0 5.0 0.00 0.00 0.00 63 1012.1
20260901170058 74 242 2.0 5.0 0.00 0.00 0.00 64 1012.1
20260901165554 74 242 3.0 5.0 0.00 0.00 0.00 64 1012.2
20260901165053 74 240 3.0 5.0 0.00 0.00 0.00 66 1012.2
20260901164552 74 243 1.0 5.0 0.00 0.00 0.00 66 1012.2
20260901164051 73 243 3.0 7.0 0.00 0.00 0.00 66 1012.3
20260901163550 73 248 3.0 7.0 0.00 0.00 0.00 66 1012.3
20260901163050 73 238 3.0 7.0 0.00 0.00 0.00 66 1012.2
20260901162548 73 250 0.0 5.0 0.00 0.00 0.00 68 1012.2
20260901162047 73 250 2.0 5.0 0.00 0.00 0.00 67 1012.1
20260901161549 72 252 2.0 5.0 0.00 0.00 0.00 68 1012.1
20260901161052 72 227 1.0 6.0 0.00 0.00 0.00 68 1012.2
20260901160550 72 236 2.0 5.0 0.00 0.00 0.00 68 1012.4
20260901160055 72 244 3.0 5.0 0.00 0.00 0.00 67 1012.2
20260901155544 72 240 0.0 7.0 0.00 0.00 0.00 69 1012.1
20260901155046 72 240 2.0 8.0 0.00 0.00 0.00 68 1012.3
20260901154544 72 250 4.0 10.0 0.00 0.00 0.00 66 1012.4
20260901154048 72 237 7.0 10.0 0.00 0.00 0.00 66 1012.6
20260901153543 72 230 7.0 12.0 0.00 0.00 0.00 66 1012.6
20260901153042 72 223 9.0 12.0 0.00 0.00 0.00 67 1012.6
20260901152541 71 239 7.0 11.0 0.00 0.00 0.00 68 1012.6
20260901152041 71 227 7.0 11.0 0.00 0.00 0.00 67 1012.6
20260901151544 71 225 7.0 12.0 0.00 0.00 0.00 69 1012.6
20260901151039 71 202 7.0 10.0 0.00 0.00 0.00 71 1012.5
20260901150537 70 196 5.0 10.0 0.00 0.00 0.00 71 1012.5
20260901150036 70 224 5.0 9.0 0.00 0.00 0.00 73 1012.4
20260901145535 69 192 5.0 7.0 0.00 0.00 0.00 76 1012.2
20260901145034 68 208 3.0 7.0 0.00 0.00 0.00 78 1012.1
20260901144533 68 212 4.0 7.0 0.00 0.00 0.00 78 1012.3
20260901144031 67 206 3.0 6.0 0.00 0.00 0.00 80 1012.3
20260901143530 67 171 3.0 5.0 0.00 0.00 0.00 82 1012.2
20260901143032 67 152 0.0 7.0 0.00 0.00 0.00 83 1012.4
20260901142529 67 152 2.0 7.0 0.00 0.00 0.00 84 1012.5
20260901142029 67 167 2.0 5.0 0.00 0.00 0.00 83 1012.6
20260901141529 66 167 3.0 5.0 0.00 0.00 0.00 84 1012.6
20260901141027 66 163 2.0 3.0 0.00 0.00 0.00 84 1012.7
20260901140525 65 163 2.0 5.0 0.00 0.00 0.00 85 1012.7
20260901140023 64 163 2.0 6.0 0.00 0.00 0.00 86 1012.7
20260901135525 63 161 2.0 6.0 0.00 0.00 0.00 89 1012.7
20260901135022 62 186 0.0 0.0 0.00 0.00 0.00 91 1012.9
20260901134536 61 186 0.0 0.0 0.00 0.00 0.00 92 1012.8
20260901134020 61 186 0.0 3.0 0.00 0.00 0.00 93 1012.7
20260901133521 60 186 0.0 3.0 0.00 0.00 0.00 94 1012.5
20260901133019 59 186 1.0 3.0 0.00 0.00 0.00 95 1012.4
20260901132519 59 186 0.0 2.0 0.00 0.00 0.00 96 1012.4
20260901132019 58 360 0.0 3.0 0.00 0.00 0.00 97 1012.4
20260901131520 57 360 1.0 2.0 0.00 0.00 0.00 97 1012.3
20260901131020 55 360 0.0 2.0 0.00 0.00 0.00 96 1012.4
20260901130521 55 360 0.0 0.0 0.00 0.00 0.00 96 1012.4
20260901130018 54 360 0.0 0.0 0.00 0.00 0.00 96 1012.3
20260901125516 54 360 0.0 0.0 0.00 0.00 0.00 95 1012.3
20260901125017 54 360 0.0 0.0 0.00 0.00 0.00 95 1012.3
20260901124522 54 360 0.0 0.0 0.00 0.00 0.00 94 1012.2
20260901124014 53 360 0.0 1.0 0.00 0.00 0.00 94 1012.2
20260901123514 53 360 0.0 1.0 0.00 0.00 0.00 93 1012.2
20260901123013 54 360 0.0 0.0 0.00 0.00 0.00 93 1012.2
20260901122512 54 360 0.0 1.0 0.00 0.00 0.00 93 1012.1
20260901122012 54 360 0.0 1.0 0.00 0.00 0.00 93 1012.0
20260901121513 54 360 0.0 0.0 0.00 0.00 0.00 93 1012.0
20260901121010 54 360 0.0 0.0 0.00 0.00 0.00 93 1011.9
20260901120511 54 360 0.0 0.0 0.00 0.00 0.00 92 1011.9
20260901120006 54 360 0.0 0.0 0.00 0.00 0.00 93 1011.8
20260901115505 54 360 0.0 0.0 0.00 0.00 0.00 92 1011.7
20260901115005 55 360 0.0 0.0 0.00 0.00 0.00 92 1011.6
20260901114504 55 360 0.0 2.0 0.00 0.00 0.00 91 1011.5
20260901114003 55 360 0.0 2.0 0.00 0.00 0.00 91 1011.5
20260901113501 56 360 0.0 2.0 0.00 0.00 0.00 91 1011.5
20260901113000 56 360 0.0 1.0 0.00 0.00 0.00 92 1011.3
20260901112500 56 360 0.0 2.0 0.00 0.00 0.00 92 1011.2
20260901112100 56 360 0.0 4.0 0.00 0.00 0.00 92 1011.3
20260901111601 56 360 1.0 4.0 0.00 0.00 0.00 92 1011.2
20260901111058 56 360 2.0 4.0 0.00 0.00 0.00 89 1011.3
20260901110601 57 360 0.0 0.0 0.00 0.00 0.00 90 1011.2
20260901110105 57 360 0.0 0.0 0.00 0.00 0.00 89 1011.1
20260901105558 57 360 0.0 0.0 0.00 0.00 0.00 90 1011.0
20260901105055 58 360 0.0 0.0 0.00 0.00 0.00 90 1011.0
20260901104553 58 360 0.0 0.0 0.00 0.00 0.00 89 1011.0
20260901104050 59 360 0.0 1.0 0.00 0.00 0.00 89 1010.8
20260901103549 59 360 0.0 3.0 0.00 0.00 0.00 90 1010.6
20260901103050 59 360 1.0 3.0 0.00 0.00 0.00 90 1010.6
20260901102547 60 360 1.0 3.0 0.00 0.00 0.00 90 1010.5
20260901102047 60 360 1.0 3.0 0.00 0.00 0.00 90 1010.4
20260901101609 60 360 0.0 2.0 0.00 0.00 0.00 90 1010.5
20260901101046 60 360 0.0 2.0 0.00 0.00 0.00 90 1010.5
20260901100550 60 360 0.0 2.0 0.00 0.00 0.00 90 1010.5
20260901100100 60 360 0.0 0.0 0.00 0.00 0.00 90 1010.6
20260901095545 60 360 0.0 0.0 0.00 0.00 0.00 89 1010.6
20260901095044 60 360 0.0 0.0 0.00 0.00 0.00 89 1010.7
20260901094544 60 360 0.0 0.0 0.00 0.00 0.00 88 1010.7
20260901094041 61 360 0.0 0.0 0.00 0.00 0.00 88 1010.6
20260901093544 61 360 0.0 0.0 0.00 0.00 0.00 87 1010.6
20260901093041 61 360 0.0 0.0 0.00 0.00 0.00 87 1010.5
20260901092540 61 206 0.0 0.0 0.00 0.00 0.00 87 1010.5
20260901092039 61 206 0.0 0.0 0.00 0.00 0.00 87 1010.5
20260901091539 61 207 0.0 0.0 0.00 0.00 0.00 87 1010.4
20260901091041 61 207 0.0 1.0 0.00 0.00 0.00 87 1010.3
20260901090538 61 207 0.0 1.0 0.00 0.00 0.00 86 1010.3
20260901090040 61 207 0.0 0.0 0.00 0.00 0.00 86 1010.3
20260901085540 61 206 0.0 0.0 0.00 0.00 0.00 86 1010.1
20260901085036 61 206 0.0 0.0 0.00 0.00 0.00 86 1010.1
20260901084543 61 207 0.0 0.0 0.00 0.00 0.00 86 1010.0
20260901084039 61 207 0.0 0.0 0.00 0.00 0.00 86 1010.1
20260901083536 61 207 0.0 0.0 0.00 0.00 0.00 86 1010.2
20260901083037 61 206 0.0 0.0 0.00 0.00 0.00 85 1010.2
20260901082534 61 206 0.0 0.0 0.00 0.00 0.00 85 1010.2
20260901082036 61 206 0.0 0.0 0.00 0.00 0.00 85 1010.3
20260901081535 61 206 0.0 0.0 0.00 0.00 0.00 85 1010.3
20260901081036 61 206 0.0 1.0 0.00 0.00 0.00 85 1010.4
20260901080534 61 207 0.0 1.0 0.00 0.00 0.00 85 1010.3
20260901080041 61 208 0.0 1.0 0.00 0.00 0.00 85 1010.4
20260901075533 61 208 0.0 1.0 0.00 0.00 0.00 84 1010.4
20260901075033 61 208 0.0 2.0 0.00 0.00 0.00 84 1010.3
20260901074532 61 208 0.0 2.0 0.00 0.00 0.00 83 1010.5
20260901074030 61 208 1.0 2.0 0.00 0.00 0.00 83 1010.4
20260901073530 61 208 0.0 1.0 0.00 0.00 0.00 84 1010.5
20260901073032 61 208 0.0 1.0 0.00 0.00 0.00 84 1010.6
20260901072532 61 208 0.0 3.0 0.00 0.00 0.00 84 1010.6
20260901072027 62 208 1.0 3.0 0.00 0.00 0.00 81 1010.7
20260901071527 62 196 0.0 1.0 0.00 0.00 0.00 81 1010.2
20260901071030 62 196 0.0 2.0 0.00 0.00 0.00 80 1010.3
20260901070526 62 196 0.0 2.0 0.00 0.00 0.00 80 1010.3
20260901070027 62 196 0.0 2.0 0.00 0.00 0.00 81 1010.4
20260901065527 62 197 0.0 1.0 0.00 0.00 0.00 81 1010.3
20260901065024 62 197 0.0 2.0 0.00 0.00 0.00 81 1010.3
20260901064528 61 197 0.0 3.0 0.00 0.00 0.00 81 1010.3
20260901064024 61 197 1.0 3.0 0.00 0.00 0.00 81 1010.3
20260901063523 61 197 2.0 4.0 0.00 0.00 0.00 80 1010.4
20260901063021 62 197 3.0 4.0 0.00 0.00 0.00 80 1010.4
20260901062523 62 198 2.0 4.0 0.00 0.00 0.00 79 1010.4
20260901062026 62 198 2.0 4.0 0.00 0.00 0.00 79 1010.4
20260901061520 62 198 2.0 3.0 0.00 0.00 0.00 79 1010.4
20260901061019 62 199 2.0 3.0 0.00 0.00 0.00 79 1010.3
20260901060519 62 200 2.0 3.0 0.00 0.00 0.00 79 1010.3
20260901060017 62 200 2.0 3.0 0.00 0.00 0.00 79 1010.2
20260901055516 62 200 2.0 4.0 0.00 0.00 0.00 78 1010.2
20260901055022 63 200 3.0 4.0 0.00 0.00 0.00 77 1010.3
20260901054515 63 200 2.0 4.0 0.00 0.00 0.00 77 1010.2
20260901054019 63 200 2.0 4.0 0.00 0.00 0.00 77 1010.2
20260901053516 63 200 2.0 4.0 0.00 0.00 0.00 77 1010.2
20260901053018 62 200 1.0 3.0 0.00 0.00 0.00 77 1010.1
20260901052514 62 200 1.0 3.0 0.00 0.00 0.00 77 1010.2
20260901052011 62 200 2.0 3.0 0.00 0.00 0.00 76 1010.1
20260901051511 62 200 0.0 3.0 0.00 0.00 0.00 76 1010.1
20260901051011 62 200 0.0 0.0 0.00 0.00 0.00 77 1010.0
20260901050509 62 200 0.0 0.0 0.00 0.00 0.00 76 1010.0
20260901050007 63 200 0.0 0.0 0.00 0.00 0.00 75 1009.9
20260901045506 63 200 0.0 2.0 0.00 0.00 0.00 75 1009.9
20260901045010 63 200 0.0 2.0 0.00 0.00 0.00 74 1009.8
20260901044506 64 200 0.0 3.0 0.00 0.00 0.00 73 1009.7
20260901044003 65 200 1.0 3.0 0.00 0.00 0.00 71 1009.7
20260901043502 65 200 1.0 3.0 0.00 0.00 0.00 70 1009.6
20260901043003 65 200 0.0 2.0 0.00 0.00 0.00 70 1009.5
20260901042504 65 200 0.0 2.0 0.00 0.00 0.00 70 1009.5
20260901042002 65 200 1.0 2.0 0.00 0.00 0.00 69 1009.4
20260901041503 65 200 1.0 2.0 0.00 0.00 0.00 69 1009.3
20260901041002 65 200 1.0 2.0 0.00 0.00 0.00 69 1009.3
20260901040502 65 200 0.0 0.0 0.00 0.00 0.00 69 1009.5
20260901040001 65 200 0.0 0.0 0.00 0.00 0.00 68 1009.5
20260901035502 66 200 0.0 0.0 0.00 0.00 0.00 67 1009.5
20260901035103 66 200 0.0 0.0 0.00 0.00 0.00 67 1009.5
20260901034607 66 200 0.0 0.0 0.00 0.00 0.00 66 1009.4
20260901034105 67 200 0.0 0.0 0.00 0.00 0.00 65 1009.4
20260901033603 67 200 0.0 0.0 0.00 0.00 0.00 65 1009.4
20260901033100 67 200 0.0 1.0 0.00 0.00 0.00 65 1009.4
20260901032602 67 200 0.0 2.0 0.00 0.00 0.00 65 1009.3
20260901032101 67 200 0.0 3.0 0.00 0.00 0.00 65 1009.4
20260901031700 67 200 1.0 3.0 0.00 0.00 0.00 65 1009.3
20260901031100 66 200 2.0 3.0 0.00 0.00 0.00 66 1009.3
20260901030601 66 200 0.0 1.0 0.00 0.00 0.00 65 1009.3
20260901030502 66 200 0.0 1.0 0.00 0.00 0.00 65 1009.3
20260901030059 66 200 0.0 0.0 0.00 0.00 0.00 65 1009.3
20260901025558 66 200 0.0 2.0 0.00 0.00 0.00 65 1009.3
20260901025058 66 200 0.0 2.0 0.00 0.00 0.00 65 1009.2
20260901024603 67 200 0.0 0.0 0.00 0.00 0.00 66 1009.1
20260901024058 67 200 0.0 0.0 0.00 0.00 0.00 66 1009.1
20260901023558 67 200 0.0 0.0 0.00 0.00 0.00 65 1009.1
20260901023058 67 200 0.0 0.0 0.00 0.00 0.00 64 1009.0
20260901022558 68 200 0.0 0.0 0.00 0.00 0.00 64 1008.9
20260901022058 68 200 0.0 0.0 0.00 0.00 0.00 64 1008.8
20260901021626 68 200 0.0 0.0 0.00 0.00 0.00 63 1008.8
20260901021057 68 200 0.0 0.0 0.00 0.00 0.00 64 1008.8
20260901020558 68 200 0.0 0.0 0.00 0.00 0.00 65 1008.8
20260901020112 68 200 0.0 0.0 0.00 0.00 0.00 63 1008.7
20260901015556 69 200 0.0 1.0 0.00 0.00 0.00 62 1008.6
20260901015058 69 200 0.0 1.0 0.00 0.00 0.00 62 1008.6
20260901014558 70 200 0.0 2.0 0.00 0.00 0.00 60 1008.6
20260901014056 70 200 0.0 3.0 0.00 0.00 0.00 60 1008.4
20260901013556 70 200 1.0 3.0 0.00 0.00 0.00 58 1008.3
20260901013106 71 200 2.0 3.0 0.00 0.00 0.00 58 1008.2
20260901012559 71 200 1.0 4.0 0.00 0.00 0.00 58 1008.3
20260901012058 72 200 2.0 4.0 0.00 0.00 0.00 57 1008.3
20260901011557 72 198 3.0 4.0 0.00 0.00 0.00 58 1008.2
20260901011057 72 194 2.0 4.0 0.00 0.00 0.00 57 1008.2
20260901010556 73 180 3.0 4.0 0.00 0.00 0.00 56 1008.3
20260901010055 73 210 3.0 4.0 0.00 0.00 0.00 55 1008.1
20260901005557 74 212 3.0 4.0 0.00 0.00 0.00 55 1008.1
20260901005055 75 215 2.0 4.0 0.00 0.00 0.00 52 1008.2
20260901004554 76 216 3.0 5.0 0.00 0.00 0.00 51 1008.2
20260901004054 76 216 3.0 5.0 0.00 0.00 0.00 50 1008.2
20260901003554 77 216 3.0 5.0 0.00 0.00 0.00 49 1008.2
20260901003106 77 216 4.0 6.0 0.00 0.00 0.00 47 1008.1
20260901002554 78 215 4.0 8.0 0.00 0.00 0.00 45 1008.1
20260901002054 79 213 5.0 9.0 0.00 0.00 0.00 44 1008.1
20260901001608 79 207 5.0 8.0 0.00 0.00 0.00 43 1008.0
20260901001052 80 209 5.0 8.0 0.00 0.00 0.00 42 1008.1
20260901000552 80 209 6.0 9.0 0.00 0.00 0.00 43 1008.0
20260901000057 81 229 6.0 10.0 0.00 0.00 0.00 41 1008.0
20260831235555 81 203 6.0 10.0 0.00 0.00 0.00 41 1008.0
20260831235052 82 202 7.0 11.0 0.00 0.00 0.00 41 1008.1
20260831234603 82 205 6.0 11.0 0.00 0.00 0.00 42 1008.0
20260831234052 82 210 7.0 11.0 0.00 0.00 0.00 41 1008.0
20260831233553 82 203 6.0 10.0 0.00 0.00 0.00 42 1008.0
20260831233052 83 211 5.0 9.0 0.00 0.00 0.00 43 1008.1
20260831232551 83 207 6.0 10.0 0.00 0.00 0.00 41 1008.1
20260831232050 83 211 7.0 14.0 0.00 0.00 0.00 38 1008.1
20260831231550 83 221 7.0 14.0 0.00 0.00 0.00 37 1008.1
20260831231052 83 243 7.0 12.0 0.00 0.00 0.00 37 1008.1
20260831230551 83 234 9.0 14.0 0.00 0.00 0.00 35 1008.1
20260831230050 83 219 9.0 17.0 0.00 0.00 0.00 35 1008.0
20260831225548 84 207 11.0 17.0 0.00 0.00 0.00 34 1008.0
20260831225048 84 200 9.0 14.0 0.00 0.00 0.00 36 1008.0
20260831224548 84 232 10.0 14.0 0.00 0.00 0.00 35 1007.9
20260831224052 84 207 9.0 13.0 0.00 0.00 0.00 36 1008.0
20260831223548 84 227 9.0 14.0 0.00 0.00 0.00 37 1008.0
20260831223048 84 224 8.0 14.0 0.00 0.00 0.00 37 1008.0
20260831222548 85 208 9.0 15.0 0.00 0.00 0.00 37 1007.9
20260831222051 85 202 10.0 15.0 0.00 0.00 0.00 36 1007.9
20260831221548 84 231 8.0 15.0 0.00 0.00 0.00 37 1007.9
20260831221047 84 235 11.0 15.0 0.00 0.00 0.00 35 1007.9
20260831220546 84 210 11.0 16.0 0.00 0.00 0.00 37 1007.9